STARLINK-11269, 60995

Orbit data source: Space-Track

STARLINK-11269, 60995 is a payload satellite owned by SpaceX/Seattle (US) in LEO that was launched on Thu, 05 Sep 2024 UTC via an FALCON 9 launch vehicle from the Air Force Eastern Test Range (AFETR). Payloads include a variety of satellites, spacecraft, and rockets equipped with specific instruments for various scientific and technological missions. These include communications satellites like Starlink; space stations such as the ISS; scientific satellites like the Hubble; Earth observation satellites from companies like Planet Labs, Umbra, and HawkEye 360; GPS; miniature CubeSats for education and research; and military/defense satellites.

Loading next visibility...
STARLINK-11269 details
Identifier
60995, 2024-158F
Orbit
LEO
Last TLE update16 hours ago
Origin
Flag of USSpaceX/Seattle (US)
ManufacturerSpaceX/Seattle
MissionOperational spacecraft
Bus & MotorSTARLINK V2M, Unknown motor
Mass730 kg wet, ~700 kg dry
Launch date (UTC)
2024-09-05 (4 months ago)
Launch vehicle
FALCON 9
Launch site
Air Force Eastern Test Range (AFETR)
Object type
Payload
Rocket body
Debris
Shape & HBRUnknown
Radar Cross SectionLarge (>1 m²)

Expand to show TLE details & history

TLE from 16 hours ago
0 STARLINK-11269
1 60995U 24158F   24355.86543745  .00000143  00000-0  60541-5 0  9999
2 60995  53.1591 309.4006 0001930 108.2052 251.9176 15.69707690 17872
Epoch: 2024-12-20T20:46Z
Definitive object data (Epoch: 2024-12-20T20:46:13.795Z)
Latitude-0.00004°
Longitude-92.08173°
Altitude361.052 km
Speed7.694 km/s
True Right ascension20h 37m 36s
True Declination0° 00' 00"
Sunlit
Object was in daylight at TLE epoch
Visualization TLE readout
Latitude-37.21813°
Longitude119.04179°
Altitude372.369 km
Speed7.686 km/s
Apparent Right ascension06h 21m 33s
Apparent Declination-77° 02' 42"
Sunlit
Object is in daylight
Visualization observer readout
Local Sidereal Time12:03:11
Azimuth196.406° SSW
Elevation-37.703°
Doppler factor1
Orbital elements
Apogee altitude361.295 km
Perigee altitude358.694 km
Semi-major axis6,738.131 km
Eccentricity0.000193
Inclination53.1591°
RAAN309.4006°
Arg. of periapsis108.2052°
True anomaly251.89658°
Mean anomaly251.9176°
Eccentric anomaly251.90709°
Mean motion3.92404 °/min
BSTAR0.0000060541
Orbital period91.74 mins
Loading maneuver chart data...
Loading historical data...
Loading historical data...
Loading historical data...
Loading historical data...
Loading historical data...
Loading historical data...
Loading historical data...

STARLINK-11269 Visibility forecast

Observer location: undefined°, undefined

Span
Click to sort rows by Start time (UTC) header in descending order
Start Az.
Max El. time (UTC)
Max El. Az.
Max El.
End time (UTC)
End Az.
4 mins2024-12-21 22:54:17.660Z184.697° SSW2024-12-21 22:56:17.660Z142.064° SSE20.261°2024-12-21 22:58:17.660Z87.554° E
4 mins2024-12-22 00:30:17.660Z277.344° WNW2024-12-22 00:32:17.660Z344.79° N25.142°2024-12-22 00:34:17.660Z29.162° NE
|